Date,TemperatureHighF,TemperatureAvgF,TemperatureLowF,DewpointHighF,DewpointAvgF,DewpointLowF,HumidityHigh,HumidityAvg,HumidityLow,PressureMaxIn,PressureMinIn,WindSpeedMaxMPH,WindSpeedAvgMPH,GustSpeedMaxMPH,PrecipitationSumIn
2012-1-1,76.9,64.8,55.0,58.0,55.3,53.0,93,74,44,30.26,30.12,3,0,0,0.00
2012-1-2,65.9,59.8,50.4,60.0,47.8,33.0,94,67,36,30.19,30.07,7,2,0,0.01
2012-1-3,50.4,43.3,36.8,34.0,18.8,11.0,53,38,29,30.39,30.15,16,3,0,0.00
2012-1-4,57.1,42.7,33.7,34.0,25.8,18.0,70,52,32,30.43,30.30,5,1,0,0.00
2012-1-5,67.5,52.9,37.9,48.0,41.9,29.0,92,68,48,30.31,30.15,6,1,0,0.00
2012-1-6,70.6,57.8,47.1,56.0,49.3,45.0,94,76,46,30.23,30.11,5,0,0,0.00
2012-1-7,73.4,59.0,47.9,56.0,50.3,46.0,93,75,45,30.20,30.10,3,0,0,0.01
2012-1-8,77.5,62.8,49.7,55.0,50.5,47.0,93,68,40,30.24,30.14,6,1,0,0.00
2012-1-9,76.7,65.4,54.4,62.0,57.1,52.0,95,76,50,30.22,30.08,5,1,0,0.00
2012-1-10,76.8,66.7,55.9,61.0,57.3,54.0,93,73,50,30.11,29.94,7,1,0,0.00
2012-1-11,72.8,66.1,61.0,66.0,60.8,58.0,90,83,74,29.97,29.74,12,3,0,0.01
2012-1-12,76.3,65.7,55.5,60.0,57.1,53.0,94,76,51,29.93,29.82,15,2,0,0.01
2012-1-13,64.7,56.7,49.2,59.0,41.8,31.0,84,59,39,30.22,29.92,7,1,0,0.00
2012-1-14,55.9,48.0,39.6,38.0,28.9,24.0,70,49,31,30.36,30.20,9,2,10,0.00
2012-1-15,67.8,52.5,39.7,45.0,37.3,34.0,90,61,29,30.45,30.33,5,1,10,0.00
2012-1-16,69.9,56.9,45.1,52.0,46.4,39.0,82,69,49,30.46,30.33,7,1,13,0.00
2012-1-17,76.9,62.4,50.5,60.0,53.3,48.0,93,74,49,30.32,30.14,6,1,14,0.00
2012-1-18,77.1,63.6,54.4,61.0,56.8,51.0,93,80,53,30.15,29.93,10,2,17,0.04
2012-1-19,71.2,59.0,49.0,61.0,41.6,27.0,90,58,21,30.18,30.01,7,1,13,0.00
2012-1-20,75.7,61.6,46.6,54.0,49.0,43.0,92,66,39,30.20,30.11,9,2,15,0.00
2012-1-21,76.6,64.5,53.6,58.0,54.3,51.0,93,72,45,30.16,30.01,10,2,15,0.00
2012-1-22,80.2,64.6,52.5,61.0,55.8,50.0,94,76,40,30.14,30.05,5,0,12,0.00
2012-1-23,80.8,68.5,58.4,65.0,60.8,56.0,94,79,49,30.15,30.04,5,1,12,0.00
2012-1-24,81.8,68.9,61.4,66.0,62.1,59.0,94,80,50,30.18,30.08,10,1,11,0.00
2012-1-25,82.6,70.9,60.5,65.0,61.2,56.0,95,74,41,30.19,30.07,12,2,14,0.01
2012-1-26,82.5,72.0,62.0,66.0,62.1,59.0,94,73,46,30.10,29.94,12,3,21,0.00
2012-1-27,71.5,67.6,57.8,68.0,62.5,54.0,91,84,75,30.06,29.91,14,3,18,0.03
2012-1-28,72.0,60.8,51.7,54.0,51.2,48.0,93,73,44,30.18,30.05,6,1,9,0.00
2012-1-29,72.7,60.4,52.6,53.0,50.3,45.0,91,72,42,30.31,30.16,7,1,11,0.00
2012-1-30,72.1,58.9,46.8,51.0,46.7,43.0,85,66,39,30.38,30.28,7,1,14,0.00
2012-1-31,75.5,62.8,51.9,55.0,52.1,48.0,89,70,46,30.36,30.25,10,1,11,0.00
2012-2-1,79.4,67.8,55.8,60.0,56.3,53.0,91,69,43,30.27,30.12,11,2,12,0.00
2012-2-2,81.2,69.1,59.5,65.0,59.4,55.0,93,74,43,30.18,30.07,5,1,9,0.00
2012-2-3,74.1,67.3,61.1,63.0,60.0,58.0,94,78,60,30.24,30.13,8,1,14,0.00
2012-2-4,79.4,69.7,62.8,63.0,60.7,58.0,89,74,53,30.20,30.06,11,2,15,0.00
2012-2-5,81.8,71.9,62.5,67.0,63.7,61.0,95,77,54,30.08,29.96,4,1,7,0.00
2012-2-6,79.6,70.2,66.0,69.0,65.6,63.0,94,86,62,30.09,29.98,10,1,17,0.26
2012-2-7,69.0,65.1,60.5,65.0,62.3,58.0,95,90,82,30.07,29.99,7,2,11,0.00
2012-2-8,78.0,63.9,57.0,58.0,54.1,47.0,92,73,36,30.10,30.00,6,1,12,0.00
2012-2-9,69.5,61.8,55.2,56.0,53.4,50.0,86,74,57,30.16,30.06,8,2,11,0.00
2012-2-10,79.5,67.5,58.9,67.0,61.7,56.0,93,83,60,30.11,29.87,6,1,12,0.55
2012-2-11,68.1,59.8,48.5,62.0,48.0,25.0,93,68,37,30.12,29.84,11,3,20,0.02
2012-2-12,47.8,38.9,32.6,25.0,18.7,16.0,51,44,36,30.34,30.13,13,4,17,0.00
2012-2-13,52.8,52.8,52.8,46.0,46.0,46.0,77,77,77,30.14,30.14,0,0,1,0.00
2012-2-14,78.2,69.6,49.9,56.0,53.7,47.0,90,59,43,30.13,30.02,11,3,18,0.00
2012-2-15,81.6,69.3,58.2,62.0,58.2,55.0,92,70,46,30.19,30.09,6,1,12,0.00
2012-2-16,82.9,71.5,64.4,65.0,61.7,60.0,87,72,48,30.16,30.02,8,1,16,0.00
2012-2-17,76.7,70.0,64.7,68.0,65.3,61.0,92,85,72,30.06,29.98,4,1,8,0.00
2012-2-18,77.7,70.8,66.3,67.0,65.1,64.0,94,83,65,30.01,29.86,4,1,9,0.00
2012-2-19,83.5,71.6,63.6,70.0,63.8,54.0,93,77,55,29.90,29.73,20,4,26,0.00
2012-2-20,67.4,59.4,53.2,55.0,49.3,45.0,84,70,45,30.21,29.90,11,3,14,0.00
2012-2-21,76.4,62.9,50.8,57.0,50.8,47.0,92,68,36,30.21,30.09,5,1,8,0.00
2012-2-22,77.8,67.1,60.4,65.4,61.2,56.0,93,82,59,30.11,29.88,8,2,20,0.60
2012-2-23,84.6,72.8,65.0,70.2,65.9,61.0,94,81,50,29.94,29.85,8,3,17,0.00
2012-2-24,87.1,75.7,66.4,69.0,64.7,60.0,92,71,42,29.99,29.89,17,4,22,0.00
2012-2-25,71.6,63.5,55.6,68.0,43.0,30.0,89,50,29,30.25,29.97,9,2,15,0.00
2012-2-26,68.6,62.8,55.5,62.0,51.6,38.0,82,67,52,30.33,30.23,8,2,16,0.00
2012-2-27,84.1,72.0,65.8,68.0,65.0,62.0,92,80,52,30.29,30.18,9,1,10,0.00
2012-2-28,78.9,70.1,64.7,67.0,64.1,62.0,95,82,61,30.27,30.18,5,1,11,0.00
2012-2-29,85.7,74.0,63.6,69.0,64.7,62.0,95,75,45,30.22,30.06,11,2,13,0.00
2012-3-1,86.6,75.0,67.7,67.0,64.9,60.0,91,73,45,30.10,29.96,8,1,15,0.00
2012-3-2,85.2,74.1,64.6,67.0,63.3,61.0,93,71,45,30.05,29.91,9,2,17,0.00
2012-3-3,88.0,76.0,67.6,69.0,65.3,57.0,92,72,35,29.92,29.76,16,4,22,0.00
2012-3-4,75.6,63.7,53.5,70.0,45.4,28.0,90,56,26,30.21,29.66,13,3,22,0.18
2012-3-5,76.0,60.3,43.5,49.0,37.8,32.0,85,48,21,30.35,30.20,7,1,11,0.00
2012-3-6,74.3,62.7,52.6,54.0,51.4,48.0,87,68,46,30.41,30.30,14,2,18,0.00
2012-3-7,76.9,67.6,58.7,63.0,57.0,52.0,91,70,50,30.40,30.29,9,2,21,0.02
2012-3-8,81.9,71.2,61.8,66.0,63.4,60.0,95,78,55,30.30,30.16,11,2,17,0.01
2012-3-9,84.2,72.2,68.3,68.5,66.5,63.0,93,84,50,30.20,30.05,8,1,14,0.23
2012-3-10,80.4,71.0,67.1,67.5,65.5,64.0,94,83,62,30.22,30.08,9,2,17,0.01
2012-3-11,69.0,67.3,65.2,66.0,64.1,61.3,94,89,81,30.30,30.19,7,2,18,0.62
2012-3-12,78.5,68.0,61.3,61.4,59.3,57.0,88,75,50,30.29,30.20,9,1,14,0.00
2012-3-13,82.3,70.2,59.8,62.0,58.9,57.0,92,70,45,30.25,30.15,8,1,11,0.00
2012-3-14,83.6,71.3,60.9,65.0,60.8,58.0,93,72,46,30.23,30.14,6,1,11,0.00
2012-3-15,82.8,71.6,62.5,67.0,62.7,61.0,93,75,50,30.25,30.16,9,1,14,0.00
2012-3-16,84.0,71.6,62.3,66.0,61.5,58.0,94,73,43,30.23,30.12,7,1,14,0.01
2012-3-17,82.6,71.9,60.5,65.0,59.2,54.0,94,67,40,30.23,30.13,7,1,10,0.00
2012-3-18,84.0,71.3,60.6,65.0,58.9,55.0,93,68,38,30.25,30.14,6,1,11,0.00
2012-3-19,83.8,71.5,61.2,65.0,60.4,59.0,93,70,45,30.18,30.07,7,1,13,0.00
2012-3-20,83.6,72.2,63.4,65.0,61.6,59.0,92,71,46,30.12,30.03,10,2,14,0.00
2012-3-21,80.1,72.1,65.6,68.0,64.7,63.0,93,78,62,30.14,30.05,11,2,20,0.00
2012-3-22,86.3,74.1,65.1,68.0,64.1,62.0,94,73,44,30.16,30.05,9,2,14,0.00
2012-3-23,87.1,75.4,65.2,67.0,63.0,59.0,93,68,40,30.12,29.97,9,2,12,0.00
2012-3-24,85.7,75.5,67.0,66.0,63.6,59.0,88,68,45,30.02,29.86,9,2,20,0.00
2012-3-25,82.9,74.5,68.8,68.0,59.6,48.0,90,63,31,29.91,29.78,8,2,17,0.07
2012-3-26,82.3,70.7,60.6,60.0,56.1,52.0,90,63,37,30.01,29.86,7,1,11,0.00
2012-3-27,85.1,70.0,59.2,63.0,57.4,51.0,92,69,32,30.19,30.00,8,1,14,0.00
2012-3-28,83.7,71.7,61.9,65.0,60.9,57.0,93,72,42,30.19,30.05,8,2,11,0.00
2012-3-29,84.7,73.3,62.6,65.0,60.0,54.0,92,66,36,30.07,29.93,5,1,11,0.00
2012-3-30,86.1,73.8,63.0,64.0,59.8,56.0,90,64,40,30.05,29.94,8,2,14,0.00
2012-3-31,84.0,72.8,66.4,66.0,62.9,58.0,90,72,48,29.98,29.82,12,3,21,0.62
2012-4-1,88.4,75.5,65.8,67.0,63.6,57.0,93,69,35,29.93,29.81,6,1,11,0.00
2012-4-2,90.3,78.4,69.7,67.0,63.5,58.0,89,64,35,29.91,29.81,7,1,10,0.00
2012-4-3,92.7,78.8,65.7,69.0,62.1,51.0,93,62,26,29.96,29.86,8,1,16,0.00
2012-4-4,90.8,77.8,66.8,67.0,61.5,53.0,90,61,30,29.95,29.77,8,1,15,0.00
2012-4-5,87.1,77.1,68.6,67.0,64.5,61.0,87,67,43,29.83,29.70,11,3,16,0.00
2012-4-6,84.7,74.3,65.6,67.9,60.8,47.2,89,65,29,29.97,29.71,12,4,20,0.19
2012-4-7,78.9,69.2,61.7,56.5,53.7,49.3,79,59,39,30.16,29.96,9,2,17,0.00
2012-4-8,80.5,66.8,59.2,57.0,52.8,51.0,83,62,38,30.19,30.06,4,0,10,0.00
2012-4-9,83.9,70.0,58.0,61.0,55.0,52.0,90,62,34,30.09,29.96,7,1,9,0.00
2012-4-10,87.1,74.5,60.8,62.0,57.5,54.0,89,59,34,30.06,29.93,6,1,10,0.00
2012-4-11,86.1,75.1,65.7,65.0,57.8,45.0,89,59,24,30.03,29.91,5,1,11,0.00
2012-4-12,83.3,72.1,63.1,61.0,56.4,50.0,80,60,32,30.06,29.95,8,2,17,0.00
2012-4-13,84.3,73.0,63.9,63.0,59.1,52.0,85,64,35,30.14,30.02,7,1,12,0.00
2012-4-14,75.3,70.9,65.6,63.0,61.1,59.0,88,72,61,30.23,30.11,9,2,19,0.00
2012-4-15,82.4,72.4,62.8,60.0,58.8,56.0,87,64,43,30.22,30.14,11,2,15,0.00
2012-4-16,83.8,72.6,60.9,63.0,59.4,55.0,90,65,38,30.21,30.12,11,2,15,0.00
2012-4-17,85.1,72.5,61.3,62.0,59.0,56.0,91,65,39,30.17,30.04,10,2,14,0.00
2012-4-18,86.1,75.4,63.7,66.0,61.3,56.0,89,64,36,30.09,29.93,11,3,14,0.00
2012-4-19,82.5,73.3,68.2,72.0,66.7,63.0,91,80,53,29.98,29.87,11,2,18,0.17
2012-4-20,86.9,72.3,66.1,71.0,66.7,63.0,94,83,52,29.91,29.80,4,1,13,0.29
2012-4-21,81.0,70.8,65.6,68.0,64.8,63.0,93,82,57,29.86,29.58,13,3,22,0.30
2012-4-22,80.0,69.8,62.7,66.0,62.0,55.0,94,78,54,29.71,29.49,9,3,19,0.45
2012-4-23,72.3,65.0,59.5,55.0,44.7,41.0,64,49,33,29.89,29.71,11,2,20,0.00
2012-4-24,74.2,63.1,52.8,46.0,35.9,29.0,67,39,22,30.01,29.88,9,2,19,0.00
2012-4-25,83.0,68.0,50.7,55.0,47.3,42.0,86,52,27,30.11,30.00,6,1,11,0.00
2012-4-26,87.1,73.1,58.1,61.0,56.0,53.0,88,59,31,30.14,30.01,11,2,13,0.00
2012-4-27,89.0,75.1,61.6,64.0,59.5,49.0,92,62,26,30.12,30.00,11,2,13,0.00
2012-4-28,89.5,76.2,64.4,70.0,65.0,61.0,92,71,42,30.09,30.00,9,1,14,0.00
2012-4-29,87.5,76.5,69.2,71.0,67.6,63.0,94,76,46,30.10,30.02,10,1,11,0.00
2012-4-30,87.1,76.8,69.5,70.0,66.7,62.0,93,73,44,30.11,30.03,13,2,18,0.00
2012-5-1,87.3,77.4,70.6,71.0,67.7,66.0,90,73,49,30.09,30.00,12,2,17,0.00
2012-5-2,88.2,77.4,68.1,69.0,66.3,62.0,94,71,42,30.09,30.03,10,3,16,0.00
2012-5-3,90.0,77.8,68.0,69.0,66.7,63.0,93,71,43,30.10,30.02,12,3,14,0.00
2012-5-4,89.1,77.5,68.0,69.0,66.2,63.0,92,71,44,30.09,29.97,7,2,12,0.00
2012-5-5,93.4,83.8,69.2,69.0,65.4,60.0,92,57,34,30.02,29.88,7,2,11,0.00
2012-5-6,81.9,81.0,80.2,67.0,66.2,65.0,64,61,57,29.88,29.86,1,0,6,0.00
2012-5-7,89.7,78.2,72.1,72.0,67.1,65.0,85,70,47,29.90,29.84,8,1,15,0.05
2012-5-8,90.8,74.7,67.0,71.0,67.3,65.0,93,80,43,29.90,29.81,6,1,9,0.44
2012-5-9,87.4,77.1,69.5,72.0,69.4,67.0,94,78,54,29.87,29.74,11,2,18,0.19
2012-5-10,89.6,77.4,69.2,71.0,65.4,54.0,90,69,31,29.93,29.75,6,1,11,0.00
2012-5-11,85.2,75.7,67.0,66.0,61.1,56.0,90,63,39,30.12,29.90,13,2,16,0.00
2012-5-12,86.0,75.2,65.4,66.0,61.0,57.0,84,63,42,30.18,30.09,8,2,16,0.00
2012-5-13,82.1,74.6,65.7,67.0,64.1,60.0,87,71,56,30.14,30.02,8,1,13,0.00
2012-5-14,84.7,76.2,72.2,71.0,68.8,64.0,90,79,50,30.05,29.92,5,1,8,0.04
2012-5-15,93.1,77.8,69.2,70.0,67.2,64.0,92,73,38,30.02,29.89,15,1,22,0.13
2012-5-16,81.0,72.6,69.2,72.0,68.4,66.0,94,87,68,30.01,29.92,8,1,13,0.44
2012-5-17,90.3,76.4,69.3,71.0,67.9,65.0,95,78,43,29.95,29.80,8,1,12,0.30
2012-5-18,90.7,76.7,67.2,69.0,66.7,65.0,93,73,43,29.94,29.85,6,1,16,0.01
2012-5-19,85.6,76.5,69.6,69.0,66.5,64.0,91,73,49,30.00,29.89,8,2,14,0.00
2012-5-20,91.2,77.1,67.4,65.0,60.0,37.0,89,61,15,30.00,29.89,10,2,11,0.00
2012-5-21,91.2,77.5,66.2,65.0,62.1,58.0,89,63,35,29.98,29.87,6,1,11,0.00
2012-5-22,92.4,79.0,67.9,70.0,64.4,55.0,90,65,30,29.96,29.83,12,2,17,0.00
2012-5-23,94.2,80.3,70.0,71.0,66.7,57.0,92,67,29,29.91,29.82,7,2,16,0.00
2012-5-24,89.8,79.4,70.6,73.0,70.6,68.0,93,75,55,29.90,29.84,9,1,17,0.00
2012-5-25,90.7,80.5,73.0,73.0,70.3,68.0,93,73,47,30.04,29.89,9,2,13,0.00
2012-5-26,91.8,80.9,71.1,72.0,66.9,62.0,94,66,37,30.04,29.93,7,2,16,0.01
2012-5-27,91.8,80.0,73.0,72.0,67.9,65.0,84,68,41,29.95,29.77,8,2,18,0.02
2012-5-28,86.2,74.9,71.2,74.0,70.7,68.0,93,87,65,29.92,29.79,11,3,20,1.55
2012-5-29,82.8,75.4,72.5,75.0,71.4,69.0,93,87,66,29.93,29.83,9,2,19,0.17
2012-5-30,92.3,82.9,75.7,75.0,72.4,70.0,92,72,51,29.88,29.76,10,2,13,0.00
2012-5-31,93.3,81.5,75.5,75.0,71.8,68.0,92,74,44,29.91,29.80,6,2,13,0.01
2012-6-1,80.4,73.4,70.4,73.0,70.0,68.0,94,89,74,29.94,29.82,7,1,10,1.20
2012-6-2,91.8,76.9,71.3,73.0,69.7,67.0,94,81,46,29.95,29.85,11,2,16,0.00
2012-6-3,93.3,81.7,71.5,69.0,64.1,59.0,87,59,32,30.03,29.92,7,1,14,0.00
2012-6-4,93.1,82.3,72.5,72.0,68.2,65.0,81,64,42,29.97,29.80,11,2,20,0.00
2012-6-5,89.1,78.4,73.5,74.0,72.1,68.0,89,82,56,29.85,29.77,14,2,17,0.26
2012-6-6,86.2,76.1,71.3,75.0,70.7,64.0,91,83,65,29.93,29.80,12,2,20,0.33
2012-6-7,86.0,75.3,70.7,76.0,71.3,69.0,94,87,63,29.97,29.89,11,1,14,1.16
2012-6-8,84.9,76.5,71.8,76.0,72.6,70.0,95,88,69,29.97,29.88,5,1,8,0.20
2012-6-9,88.1,76.2,72.4,75.0,72.4,71.0,95,88,62,30.03,29.91,6,1,10,0.67
2012-6-10,93.0,79.8,71.2,77.0,72.7,68.0,95,80,52,30.18,29.98,8,2,22,0.50
2012-6-11,91.4,79.6,70.2,76.0,71.7,68.0,95,78,57,30.11,30.03,6,1,13,0.00
2012-6-12,93.3,79.4,72.0,71.0,69.6,67.0,91,74,46,30.08,29.90,8,1,17,0.28
2012-6-13,96.1,81.7,72.5,76.0,70.4,65.0,92,71,41,29.96,29.82,7,1,18,0.17
2012-6-14,91.4,77.0,71.4,74.0,71.6,68.0,94,85,55,30.00,29.86,17,1,24,0.67
2012-6-15,87.1,78.3,72.0,74.0,70.2,64.0,95,78,49,30.03,29.93,13,2,17,0.00
2012-6-16,86.3,78.9,71.5,71.0,67.4,64.0,93,70,49,30.05,29.98,11,2,21,0.00
2012-6-17,86.2,77.6,70.1,70.0,66.9,63.0,91,71,49,30.06,29.94,8,1,12,0.00
2012-6-18,88.5,78.4,69.3,71.0,66.4,63.0,93,69,43,30.05,29.96,6,1,14,0.00
2012-6-19,87.3,78.2,69.4,68.0,65.9,62.0,88,68,44,30.07,30.01,8,2,16,0.00
2012-6-20,84.0,76.7,73.7,74.0,70.6,67.0,94,82,64,30.04,29.97,8,2,15,0.58
2012-6-21,88.4,79.9,73.2,76.0,73.0,72.0,95,80,61,30.00,29.87,9,2,16,0.00
2012-6-22,88.8,78.8,74.6,77.0,73.9,73.0,93,85,62,29.91,29.83,8,1,16,0.90
2012-6-23,83.6,78.5,74.2,75.0,73.8,72.0,95,86,71,29.95,29.84,8,1,10,0.01
2012-6-24,78.7,75.9,73.8,75.0,73.4,71.0,94,92,87,29.94,29.76,19,4,23,2.35
2012-6-25,81.6,78.4,75.0,75.0,73.8,72.0,94,86,74,29.77,29.65,21,8,25,1.15
2012-6-26,84.0,79.8,76.9,78.0,74.8,73.0,91,85,75,29.66,29.57,16,7,24,0.65
2012-6-27,86.9,78.0,72.1,75.0,71.8,64.0,95,82,65,29.99,29.57,12,3,21,0.33
2012-6-28,91.1,78.7,64.9,68.0,62.0,56.0,93,61,31,30.07,29.98,5,1,9,0.00
2012-6-29,94.0,82.2,70.0,72.0,69.3,67.0,92,67,44,30.03,29.90,5,1,11,0.00
2012-6-30,93.9,82.6,71.8,72.0,70.0,66.0,92,68,46,29.98,29.89,10,2,13,0.00
2012-7-1,96.2,83.8,71.7,75.0,70.4,68.0,93,67,40,30.05,29.94,7,1,11,0.00
2012-7-2,96.1,84.9,75.4,75.0,71.7,66.0,92,67,40,30.07,29.94,6,1,13,0.00
2012-7-3,96.5,83.9,76.5,75.0,71.6,68.0,86,69,41,30.05,29.93,11,1,19,0.02
2012-7-4,92.8,80.6,75.3,75.0,72.1,68.0,89,76,49,30.06,30.00,13,1,24,0.08
2012-7-5,94.8,83.1,73.4,75.0,70.9,64.0,93,70,37,30.05,29.93,6,1,12,0.13
2012-7-6,94.6,84.0,74.7,75.0,72.0,66.0,94,70,42,30.05,29.95,7,2,12,0.00
2012-7-7,95.5,85.1,75.4,74.0,71.1,65.0,89,65,36,30.06,30.00,9,2,14,0.00
2012-7-8,96.0,84.4,75.9,76.0,72.8,69.0,92,70,43,30.08,29.98,8,1,12,0.00
2012-7-9,96.3,83.9,76.9,75.0,72.8,67.0,90,71,38,30.02,29.93,8,1,13,0.00
2012-7-10,94.5,82.4,76.3,75.0,72.9,68.0,90,74,45,30.02,29.94,13,2,28,0.06
2012-7-11,82.9,76.7,73.6,77.0,73.0,70.0,94,88,76,30.05,29.94,4,0,13,0.81
2012-7-12,89.6,78.7,72.6,77.0,73.0,71.0,95,84,58,30.02,29.92,11,1,16,0.05
2012-7-13,91.5,81.6,72.7,76.0,72.7,71.0,94,75,54,30.06,29.97,9,2,16,0.04
2012-7-14,91.9,83.0,75.6,75.0,72.2,69.0,92,72,49,30.09,30.00,10,2,14,0.00
2012-7-15,89.1,78.6,74.1,75.0,73.0,71.0,93,83,55,30.09,30.02,8,1,15,0.30
2012-7-16,90.5,78.4,73.3,74.0,72.3,70.0,93,82,52,30.06,29.94,7,2,17,0.03
2012-7-17,87.5,78.4,74.3,75.0,72.5,71.0,92,82,61,30.02,29.94,6,1,12,0.01
2012-7-18,91.4,80.8,74.7,75.0,72.7,70.0,92,78,52,30.11,29.98,9,1,15,0.07
2012-7-19,94.8,82.3,75.4,77.0,73.3,67.0,93,76,49,30.15,30.05,7,1,18,0.01
2012-7-20,95.0,84.1,73.5,76.0,72.2,69.0,92,70,45,30.11,30.01,8,1,13,0.00
2012-7-21,95.4,85.4,76.7,77.0,73.8,71.0,92,70,46,30.10,30.00,9,2,13,0.00
2012-7-22,92.5,80.7,73.8,78.0,74.1,70.0,93,81,54,30.16,30.06,16,1,25,0.48
2012-7-23,91.5,78.5,72.9,79.0,73.3,70.0,95,85,57,30.15,30.06,10,2,27,1.20
2012-7-24,92.9,80.0,72.6,78.0,73.9,71.0,96,83,54,30.12,30.00,6,1,11,0.01
2012-7-25,95.0,84.6,76.4,77.0,74.7,71.0,93,74,46,30.01,29.94,7,2,15,0.00
2012-7-26,95.4,85.9,77.4,76.0,73.6,70.0,92,69,46,30.01,29.94,10,2,12,0.00
2012-7-27,95.6,85.5,75.9,77.0,73.2,69.0,92,69,43,30.07,29.95,7,1,11,0.00
2012-7-28,96.2,86.3,77.5,77.0,72.7,67.0,88,66,39,30.08,29.97,14,1,17,0.00
2012-7-29,94.6,86.3,77.9,76.0,73.1,68.0,90,67,42,30.05,29.94,8,1,14,0.00
2012-7-30,93.4,83.5,76.7,76.0,73.1,67.0,90,72,49,30.02,29.96,8,1,16,0.01
2012-7-31,93.2,81.8,74.7,76.0,73.0,71.0,91,76,51,30.02,29.94,7,1,18,0.10
2012-8-1,88.4,80.4,75.2,76.8,73.9,71.0,91,81,61,30.00,29.90,7,1,22,0.53
2012-8-2,94.6,85.2,76.9,77.0,73.7,68.0,92,70,43,29.98,29.88,6,1,13,0.00
2012-8-3,92.9,80.3,75.2,78.0,72.1,70.0,90,77,50,30.01,29.91,9,0,18,0.15
2012-8-4,89.0,81.1,74.2,75.0,73.7,72.0,95,79,60,30.03,29.95,8,1,11,0.00
2012-8-5,90.3,81.3,77.4,77.0,74.7,71.0,91,81,59,30.09,30.00,8,2,18,0.01
2012-8-6,92.4,80.8,75.4,77.0,74.8,72.0,93,83,53,30.08,29.96,9,2,16,0.73
2012-8-7,94.1,80.3,73.8,76.0,73.6,71.0,95,82,49,30.02,29.94,13,2,23,0.11
2012-8-8,95.5,82.2,74.8,77.0,73.6,68.0,93,77,43,30.04,29.94,8,1,17,0.00
2012-8-9,95.4,83.5,73.5,76.0,72.9,70.0,92,72,45,30.02,29.89,12,1,17,0.28
2012-8-10,95.1,82.1,74.4,76.0,73.9,71.0,94,78,45,29.97,29.89,7,1,16,0.03
2012-8-11,91.3,80.9,76.0,75.0,73.6,71.0,93,80,54,29.99,29.88,5,1,12,0.28
2012-8-12,92.2,80.7,75.4,77.0,74.1,72.0,93,81,56,30.03,29.95,9,1,14,0.00
2012-8-13,93.6,81.5,75.7,77.0,74.5,72.0,92,80,51,30.06,29.97,5,1,11,0.01
2012-8-14,94.5,81.1,73.5,77.0,73.2,69.0,93,79,48,30.02,29.94,6,1,16,1.15
2012-8-15,94.6,82.1,73.5,77.0,73.1,71.0,95,77,49,30.03,29.93,5,1,12,0.82
2012-8-16,95.7,81.7,74.2,78.0,73.6,71.0,95,78,47,30.05,29.95,4,1,13,0.00
2012-8-17,91.0,80.7,75.3,78.0,74.1,67.0,93,81,52,30.02,29.92,6,1,32,0.09
2012-8-18,85.2,79.0,74.2,78.0,73.8,70.0,94,84,70,29.99,29.87,7,1,19,0.23
2012-8-19,93.5,80.7,75.4,78.0,74.5,73.0,94,83,53,29.96,29.87,21,2,21,0.37
2012-8-20,93.6,82.2,75.4,79.0,74.1,70.0,94,78,52,30.03,29.84,8,2,20,0.39
2012-8-21,93.0,76.9,72.4,77.0,71.8,68.0,93,85,52,30.08,29.93,9,2,18,0.53
2012-8-22,88.4,76.8,72.5,75.0,71.3,68.0,94,84,60,30.08,29.96,6,1,30,0.02
2012-8-23,92.9,81.0,73.7,73.0,71.2,67.0,93,74,47,30.08,30.00,5,1,10,0.00
2012-8-24,90.5,80.7,74.6,74.0,71.7,69.0,87,75,52,30.05,29.95,5,1,11,0.00
2012-8-25,87.7,78.8,73.0,76.0,72.0,70.0,91,80,64,30.02,29.95,8,2,15,0.01
2012-8-26,83.2,79.3,76.5,78.0,75.5,73.0,91,88,80,29.99,29.84,7,2,19,0.13
2012-8-27,79.1,77.0,73.3,76.0,74.3,71.0,94,91,86,29.89,29.78,15,3,29,1.92
2012-8-28,87.5,80.1,75.6,78.0,75.7,72.0,92,86,70,29.98,29.87,13,4,22,0.47
2012-8-29,90.8,81.6,74.4,77.0,74.3,72.0,94,80,60,29.98,29.89,11,2,15,0.00
2012-8-30,94.0,81.5,74.0,77.0,74.2,71.0,94,80,49,30.10,29.93,11,1,18,1.28
2012-8-31,90.5,81.4,74.5,79.0,74.8,72.0,96,82,56,30.16,30.07,6,1,10,0.00
2012-9-1,91.9,82.4,75.4,77.0,72.7,65.0,95,75,43,30.14,30.04,7,1,11,0.01
2012-9-2,90.6,80.8,71.6,74.0,69.4,64.0,94,71,44,30.07,29.96,7,1,13,0.00
2012-9-3,93.1,81.5,70.6,74.0,69.2,62.0,94,69,37,30.04,29.94,5,1,11,0.00
2012-9-4,94.7,82.2,73.7,75.0,70.8,67.0,93,71,41,30.01,29.89,6,1,16,0.00
2012-9-5,94.4,80.8,73.1,74.0,71.5,67.0,94,76,43,29.97,29.87,14,2,20,1.35
2012-9-6,89.9,77.3,72.6,75.0,72.2,70.0,93,85,58,30.00,29.92,17,1,19,1.18
2012-9-7,92.3,79.0,71.9,75.0,72.1,70.0,94,81,50,29.98,29.87,7,1,11,1.36
2012-9-8,92.4,82.0,73.1,76.0,72.6,70.0,95,75,50,29.94,29.83,10,2,15,0.01
2012-9-9,82.7,79.1,75.7,76.0,74.5,73.0,92,85,77,29.93,29.84,12,3,19,0.19
2012-9-10,89.0,80.2,75.2,77.0,74.2,71.0,95,82,62,30.01,29.89,9,1,16,0.01
2012-9-11,86.2,79.6,74.4,73.0,69.8,65.0,89,73,55,30.12,29.99,9,2,16,0.00
2012-9-12,87.7,79.3,72.0,74.0,69.7,65.0,90,73,48,30.11,30.05,11,2,18,0.00
2012-9-13,88.0,80.4,74.4,73.0,71.0,67.0,89,74,54,30.09,30.01,8,1,13,0.00
2012-9-14,84.9,77.6,72.8,76.0,72.7,70.0,93,85,71,30.06,29.98,8,1,24,1.32
2012-9-15,85.9,78.1,72.8,75.0,72.1,70.0,94,82,62,30.07,29.98,6,1,12,0.13
2012-9-16,89.7,80.0,73.5,75.0,71.5,68.0,94,77,50,30.05,29.95,10,1,12,0.00
2012-9-17,90.3,78.5,72.3,76.0,71.8,67.0,94,81,47,30.01,29.88,10,1,20,1.14
2012-9-18,87.4,76.4,73.4,77.0,73.4,70.0,93,90,68,29.94,29.85,8,2,16,0.67
2012-9-19,87.7,77.5,74.1,76.0,73.6,72.0,95,88,64,30.03,29.88,5,1,10,0.30
2012-9-20,89.6,79.6,72.0,75.0,72.5,69.0,94,80,58,30.02,29.91,4,0,9,0.57
2012-9-21,88.6,76.9,72.1,76.0,72.0,68.0,96,86,58,30.00,29.89,10,1,15,0.28
2012-9-22,86.2,77.8,72.1,74.0,71.8,70.0,95,83,61,30.02,29.93,7,0,9,0.00
2012-9-23,91.4,79.9,72.0,74.0,70.0,66.0,95,74,44,30.05,29.97,9,1,10,0.00
2012-9-24,85.3,76.8,68.8,72.0,62.7,57.0,87,64,40,30.08,29.99,6,1,10,0.00
2012-9-25,87.1,76.0,66.8,72.0,66.2,61.0,90,73,44,30.08,30.00,9,1,11,0.00
2012-9-26,90.8,79.0,70.3,74.0,71.1,67.0,95,79,48,30.10,30.02,5,0,8,0.00
2012-9-27,91.1,80.1,73.2,76.0,72.3,69.0,95,79,49,30.10,29.98,4,1,10,0.02
2012-9-28,89.0,79.0,73.1,75.0,72.4,69.0,95,81,52,30.04,29.93,7,1,13,0.00
2012-9-29,90.4,80.0,73.3,76.0,72.7,70.0,95,80,52,29.97,29.83,5,0,10,0.00
2012-9-30,90.8,81.1,74.0,75.0,73.0,70.0,94,78,55,29.89,29.75,8,1,13,0.00
2012-10-1,90.6,79.8,74.2,77.0,74.5,72.0,95,85,59,29.82,29.69,10,2,16,2.15
2012-10-2,87.1,78.6,74.0,76.0,74.4,72.0,93,87,67,30.01,29.78,7,2,13,0.36
2012-10-3,90.6,78.4,73.5,77.0,73.6,71.0,94,86,59,30.16,30.00,6,1,12,0.05
2012-10-4,91.7,79.5,73.3,79.0,73.3,71.0,96,83,55,30.16,30.03,8,1,11,0.11
2012-10-5,89.5,77.4,73.4,78.0,73.9,72.0,95,89,63,30.11,29.96,5,0,13,0.73
2012-10-6,89.5,78.5,72.7,77.0,72.8,67.0,96,83,59,29.96,29.85,5,0,14,0.01
2012-10-7,87.0,78.3,71.5,75.0,71.9,69.0,95,82,61,29.97,29.89,6,0,10,0.00
2012-10-8,88.0,78.4,73.7,76.0,73.2,70.0,95,85,57,30.01,29.90,5,1,9,0.08
2012-10-9,85.9,77.1,72.3,74.0,71.6,68.0,96,84,65,30.04,29.94,10,2,14,0.01
2012-10-10,84.9,75.2,68.5,69.0,66.1,62.0,91,75,47,30.10,30.00,5,1,10,0.00
2012-10-11,84.0,74.1,64.8,68.0,65.4,63.0,95,76,55,30.14,30.07,8,2,12,0.00
2012-10-12,83.6,73.9,66.7,68.0,62.9,55.0,89,70,40,30.17,30.09,8,2,12,0.01
2012-10-13,84.1,75.2,66.9,67.0,65.1,63.0,90,72,52,30.16,30.08,8,1,16,0.00
2012-10-14,87.4,77.7,69.6,71.0,68.7,66.0,90,75,55,30.10,29.97,8,1,11,0.00
2012-10-15,87.7,77.7,71.9,74.0,71.0,67.0,94,81,53,29.96,29.80,6,1,10,0.00
2012-10-16,84.3,75.6,69.9,71.0,66.5,63.0,92,75,54,29.86,29.77,7,1,11,0.00
2012-10-17,82.2,73.8,66.8,72.0,67.0,62.0,90,79,60,29.88,29.79,3,0,8,0.00
2012-10-18,88.0,77.8,69.9,72.0,69.2,67.0,93,76,53,29.88,29.77,8,1,10,0.00
2012-10-19,89.2,78.7,68.8,71.0,68.1,64.0,94,72,45,29.86,29.77,5,0,9,0.00
2012-10-20,83.6,74.7,63.3,70.0,57.5,50.0,88,58,36,29.95,29.82,6,1,12,0.00
2012-10-21,82.9,69.7,58.3,60.0,55.1,51.0,83,62,40,30.05,29.94,7,1,13,0.00
2012-10-22,83.5,72.6,63.2,65.0,61.9,59.0,88,71,49,30.07,29.99,11,1,15,0.00
2012-10-23,83.4,74.0,65.8,67.0,63.4,61.0,88,71,52,30.06,29.96,8,1,16,0.00
2012-10-24,85.7,76.9,69.3,69.0,67.1,64.0,84,72,53,30.01,29.91,13,2,15,0.00
2012-10-25,81.9,75.6,72.0,73.0,70.1,67.0,92,83,67,29.91,29.79,10,2,15,0.07
2012-10-26,84.3,76.3,69.4,69.0,66.8,64.4,92,74,55,29.78,29.57,16,6,31,0.19
2012-10-27,72.8,70.2,67.2,64.4,61.9,60.4,81,75,70,29.66,29.49,14,3,24,0.00
2012-10-28,72.8,66.9,59.8,62.2,59.8,54.0,87,78,65,29.77,29.64,13,2,18,0.00
2012-10-29,68.5,59.2,51.5,55.0,44.3,38.0,84,60,33,29.84,29.70,12,3,19,0.00
2012-10-30,66.9,57.3,49.6,48.0,38.4,32.0,72,50,34,29.93,29.79,11,2,24,0.00
2012-10-31,71.5,61.0,51.6,52.0,43.7,38.0,80,55,34,30.03,29.93,8,1,16,0.00
2012-11-1,79.1,67.6,56.9,61.0,57.0,52.0,93,71,45,30.01,29.89,12,1,18,0.00
2012-11-2,77.7,66.1,55.6,59.0,50.9,44.0,91,62,32,30.07,29.98,4,0,8,0.01
2012-11-3,83.2,68.7,57.4,65.0,58.1,52.0,93,71,45,30.11,30.02,3,0,7,0.00
2012-11-4,82.3,69.7,58.3,64.0,59.4,56.0,94,72,44,30.09,29.96,7,0,8,0.00
2012-11-5,79.3,70.0,63.9,67.0,62.1,58.0,93,77,53,29.99,29.88,3,0,8,0.00
2012-11-6,77.3,66.5,60.2,62.0,58.3,54.0,90,76,57,29.93,29.78,6,1,13,0.00
2012-11-7,65.6,59.9,55.0,56.0,48.9,44.0,90,69,46,29.97,29.82,13,2,16,0.00
2012-11-8,66.5,56.5,48.1,47.0,43.3,41.0,83,63,41,30.16,29.97,9,1,16,0.00
2012-11-9,72.7,59.0,45.9,49.0,44.5,36.0,90,63,27,30.25,30.15,7,1,14,0.00
2012-11-10,75.2,63.6,50.7,55.0,51.5,46.0,85,66,46,30.31,30.21,9,1,12,0.00
2012-11-11,80.1,68.4,59.0,64.0,59.7,54.0,92,75,49,30.28,30.21,11,1,13,0.04
2012-11-12,79.9,69.7,63.2,68.0,63.6,61.0,94,82,55,30.24,30.14,6,1,11,0.01
2012-11-13,79.5,69.6,61.9,67.0,63.2,60.0,95,81,54,30.17,30.08,4,0,9,0.00
2012-11-14,76.2,68.6,64.1,67.0,64.5,62.0,95,87,72,30.16,30.08,9,2,12,0.01
2012-11-15,66.0,63.4,59.3,64.0,61.1,57.0,95,92,88,30.13,30.05,6,1,10,0.00
2012-11-16,68.2,61.9,56.6,58.0,56.4,54.0,92,82,68,30.15,30.08,7,2,12,0.00
2012-11-17,77.9,67.1,60.0,63.0,60.2,57.0,92,79,56,30.14,30.06,8,2,14,0.00
2012-11-18,70.7,63.7,56.1,61.0,57.8,53.0,90,81,67,30.17,30.08,11,3,16,0.00
2012-11-19,59.0,56.9,54.7,55.0,53.0,52.0,91,87,83,30.14,30.05,7,2,13,0.00
2012-11-20,72.4,61.9,56.0,59.0,55.2,50.0,92,79,61,30.05,29.96,10,2,14,0.00
2012-11-21,71.4,61.4,55.0,54.0,50.3,46.0,88,69,42,30.06,29.97,10,2,16,0.00
2012-11-22,69.7,58.5,47.8,49.0,41.8,30.0,82,57,30,30.16,30.04,12,3,19,0.00
2012-11-23,71.9,57.3,45.1,46.0,41.2,36.0,81,58,28,30.19,30.06,7,0,10,0.00
2012-11-24,72.9,60.1,50.8,58.0,51.2,46.0,94,74,52,30.08,29.97,5,0,10,0.00
2012-11-25,70.0,55.9,44.8,47.0,41.4,33.0,88,63,26,30.15,30.06,7,0,7,0.00
2012-11-26,77.4,61.6,46.5,59.0,51.9,43.0,91,73,50,30.22,30.11,7,1,10,0.00
2012-11-27,77.9,67.4,58.2,64.0,59.7,56.0,95,78,53,30.18,30.07,8,1,12,0.00
2012-11-28,66.9,61.2,54.9,60.0,56.6,52.0,92,85,72,30.25,30.09,11,2,14,0.00
2012-11-29,75.2,62.5,52.9,59.0,54.1,51.0,94,76,52,30.27,30.20,9,1,13,0.01
2012-11-30,77.2,64.3,56.2,60.0,55.5,53.0,92,75,49,30.25,30.16,7,1,15,0.00
2012-12-1,75.6,65.2,57.4,62.0,58.9,55.0,93,81,61,30.23,30.17,7,1,13,0.01
2012-12-2,79.9,68.4,59.6,64.0,61.2,58.0,94,79,53,30.26,30.17,8,1,11,0.00
2012-12-3,79.1,68.4,61.4,64.0,61.2,56.0,91,79,45,30.27,30.18,5,0,10,0.00
2012-12-4,77.6,66.3,56.9,61.0,56.9,55.0,94,74,45,30.28,30.17,8,1,12,0.01
2012-12-5,76.0,66.9,59.0,64.0,60.8,55.0,92,81,62,30.18,30.04,6,1,9,0.00
2012-12-6,79.7,69.0,61.3,64.0,61.7,59.0,94,79,52,30.04,29.91,7,1,10,0.01
2012-12-7,77.4,67.5,62.7,66.0,63.2,61.0,95,87,63,30.00,29.91,3,0,8,0.00
2012-12-8,79.5,69.5,62.8,68.0,65.1,61.0,96,86,62,30.04,29.96,4,0,6,0.00
2012-12-9,82.2,71.2,66.1,68.0,65.9,64.0,94,84,61,30.04,29.98,2,0,6,0.00
2012-12-10,80.5,73.4,65.5,73.0,69.6,63.0,95,88,75,30.00,29.81,7,2,14,0.15
2012-12-11,81.6,73.0,68.0,72.0,69.3,66.0,95,88,70,30.01,29.87,4,0,10,0.03
2012-12-12,79.2,71.2,64.5,72.0,68.5,63.0,95,91,79,30.07,29.97,7,1,15,0.21
2012-12-13,64.5,60.7,56.1,63.0,57.8,53.0,94,90,84,30.17,30.03,13,3,15,0.00
2012-12-14,70.5,61.7,56.9,61.0,57.2,54.0,92,85,72,30.21,30.10,10,2,17,0.00
2012-12-15,79.8,65.7,57.9,65.0,59.9,56.0,96,83,53,30.15,30.04,5,1,9,0.00
2012-12-16,78.7,69.5,60.0,67.0,63.1,58.0,94,81,60,30.05,29.93,6,1,13,0.00
2012-12-17,81.5,71.2,65.3,67.0,64.1,60.0,95,80,55,29.96,29.84,8,1,14,0.01
2012-12-18,80.6,70.6,57.3,69.0,60.9,49.0,93,73,45,30.01,29.85,8,2,19,0.00
2012-12-19,77.9,63.4,50.2,57.0,50.8,47.0,89,67,34,30.10,30.01,4,0,8,0.00
2012-12-20,79.4,68.6,58.0,67.0,61.0,56.0,94,78,52,30.07,29.90,11,2,16,0.20
2012-12-21,69.9,55.6,48.2,67.0,39.0,27.0,91,56,28,30.18,29.89,12,3,17,0.06
2012-12-22,61.1,49.2,40.4,37.0,27.4,21.0,78,45,28,30.27,30.17,6,1,13,0.00
2012-12-23,66.7,51.1,36.8,40.0,34.4,24.0,88,58,20,30.26,30.12,4,0,6,0.00
2012-12-24,70.7,59.7,49.7,54.0,47.9,38.0,82,66,48,30.12,29.96,9,1,17,0.00
2012-12-25,74.1,64.7,54.2,61.0,56.8,51.0,93,77,59,30.02,29.88,7,1,13,0.00
2012-12-26,77.3,66.1,52.7,68.0,59.5,46.0,90,80,61,29.96,29.74,18,5,21,0.16
2012-12-27,60.2,49.1,40.2,45.0,39.2,35.0,88,70,47,30.10,29.97,6,1,11,0.00
2012-12-28,71.4,57.7,41.0,63.0,49.0,39.0,93,75,47,30.10,29.93,6,1,9,0.32
2012-12-29,75.4,67.9,52.7,71.0,62.3,46.0,95,83,60,30.12,29.84,10,3,19,0.10
2012-12-30,54.5,48.5,38.9,44.0,39.5,33.0,82,72,60,30.36,30.13,8,2,15,0.00
2012-12-31,74.3,59.5,45.9,56.0,50.8,43.0,91,74,50,30.33,30.18,9,1,15,0.00
2013-1-1,76.5,64.7,53.7,60.0,56.5,51.0,93,76,55,30.21,30.03,10,1,16,0.00